Вернуться в каталог

COSMOS 1486

АктивенВоенныеLEO
NORAD 14240·PAYLOAD·🇷🇺 Russia

Запущен Aug 3, 1983 с Plesetsk Cosmodrome

Loading…

Ближайшие Пролёты (ближайшие 24 часа)

TLE

СвежийSource: Space-Track

Эпоха: Sep 14, 2026, 10:49 UTC

1 14240U 83079A   26257.45089660  .00000062  00000-0  30796-4 0  9995
2 14240  74.0545 247.6529 0012844 146.6943  14.9907 14.34889097254559

Отслеживайте COSMOS 1486 в реальном времени с AllMySat

Download on the App Store